QPF
0.00 0.00 0.00 0.00 0.00 0.00 0.00 0.00 0.00 0.00 0.00 0.00 0.00 0.00 0.00 0.00 0.00 0.00 0.00 0.00 0.00 0.00 0.00 0.01 0.01 0.01 0.01 0.02 0.02 0.02 0.03 0.03 0.03 0.03 0.03 0.02 0.02 0.02 0.02 0.02 0.03 0.04 0.03 0.01
0.00 0.00 0.00 0.00 0.00 0.00 0.00 0.00 0.00 0.00 0.00 0.00 0.00 0.00 0.01 0.01 0.01 0.01 0.01 0.02 0.02 0.03 0.03 0.03 0.03 0.03 0.03 0.03 0.03 0.03 0.03 0.03 0.02 0.02 0.01 0.01 0.01 0.01 0.01 0.02 0.03 0.05 0.05 0.03
0.00 0.00 0.00 0.00 0.00 0.00 0.00 0.00 0.00 0.00 0.00 0.00 0.01 0.02 0.03 0.04 0.05 0.05 0.05 0.04 0.03 0.02 0.02 0.01 0.01 0.00 0.00 0.00 0.00 0.00 0.01 0.01 0.01 0.01 0.01 0.00 0.00 0.00 0.01 0.02 0.04 0.06 0.07 0.05
0.00 0.00 0.00 0.00 0.00 0.00 0.00 0.00 0.00 0.00 0.01 0.02 0.02 0.02 0.02 0.03 0.03 0.02 0.01 0.01 0.00 0.00 0.00 0.00 0.00 0.00 0.00 0.00 0.00 0.00 0.00 0.00 0.00 0.00 0.00 0.00 0.00 0.01 0.02 0.03 0.05 0.08 0.11 0.10
0.00 0.00 0.00 0.00 0.00 0.00 0.00 0.01 0.01 0.00 0.00 0.00 0.00 0.00 0.00 0.00 0.00 0.00 0.00 0.00 0.00 0.00 0.00 0.00 0.00 0.00 0.00 0.00 0.00 0.00 0.00 0.00 0.00 0.00 0.00 0.00 0.00 0.01 0.04 0.06 0.07 0.09 0.12 0.14
0.00 0.00 0.00 0.00 0.00 0.00 0.01 0.04 0.01 0.00 0.00 0.00 0.00 0.00 0.00 0.00 0.00 0.00 0.00 0.00 0.00 0.00 0.00 0.00 0.00 0.00 0.00 0.00 0.00 0.00 0.00 0.00 0.00 0.00 0.00 0.00 0.00 0.01 0.03 0.06 0.09 0.13 0.14 0.15
0.00 0.00 0.00 0.00 0.00 0.00 0.00 0.01 0.00 0.00 0.00 0.00 0.00 0.00 0.00 0.00 0.00 0.00 0.00 0.00 0.00 0.00 0.00 0.00 0.00 0.00 0.00 0.00 0.00 0.00 0.00 0.00 0.00 0.00 0.00 0.00 0.01 0.01 0.02 0.04 0.09 0.15 0.18 0.18
0.00 0.00 0.00 0.00 0.00 0.00 0.00 0.00 0.00 0.00 0.00 0.00 0.00 0.00 0.00 0.00 0.00 0.00 0.00 0.00 0.00 0.00 0.00 0.00 0.00 0.00 0.00 0.00 0.00 0.00 0.01 0.01 0.01 0.01 0.01 0.00 0.01 0.01 0.02 0.03 0.07 0.17 0.27 0.29
0.00 0.00 0.00 0.00 0.00 0.00 0.00 0.00 0.00 0.00 0.00 0.00 0.00 0.00 0.00 0.00 0.00 0.00 0.00 0.00 0.00 0.00 0.00 0.00 0.00 0.01 0.01 0.01 0.01 0.01 0.01 0.02 0.02 0.02 0.02 0.01 0.02 0.02 0.02 0.02 0.04 0.14 0.29 0.36
0.00 0.00 0.00 0.00 0.00 0.00 0.00 0.00 0.00 0.00 0.00 0.00 0.00 0.00 0.00 0.00 0.00 0.00 0.00 0.00 0.00 0.00 0.00 0.00 0.01 0.01 0.01 0.01 0.02 0.02 0.03 0.03 0.03 0.03 0.02 0.02 0.02 0.02 0.01 0.01 0.03 0.12 0.25 0.30
0.00 0.00 0.00 0.00 0.00 0.00 0.00 0.00 0.00 0.00 0.00 0.00 0.00 0.00 0.00 0.00 0.00 0.00 0.00 0.00 0.00 0.00 0.01 0.01 0.01 0.02 0.03 0.03 0.05 0.05 0.04 0.04 0.03 0.03 0.02 0.02 0.02 0.02 0.01 0.02 0.03 0.11 0.24 0.28
0.00 0.00 0.00 0.00 0.00 0.00 0.00 0.00 0.00 0.00 0.00 0.00 0.00 0.00 0.00 0.00 0.00 0.00 0.00 0.00 0.00 0.01 0.02 0.02 0.03 0.04 0.05 0.06 0.07 0.07 0.06 0.05 0.04 0.03 0.03 0.03 0.03 0.03 0.02 0.02 0.02 0.08 0.20 0.25
0.00 0.00 0.00 0.00 0.00 0.00 0.00 0.00 0.00 0.00 0.00 0.00 0.00 0.00 0.00 0.00 0.00 0.00 0.00 0.01 0.02 0.03 0.04 0.05 0.06 0.06 0.06 0.08 0.09 0.09 0.08 0.06 0.05 0.04 0.03 0.03 0.03 0.04 0.05 0.05 0.05 0.09 0.15 0.16
0.00 0.00 0.00 0.00 0.00 0.00 0.00 0.00 0.00 0.00 0.00 0.00 0.00 0.00 0.00 0.00 0.00 0.00 0.01 0.02 0.04 0.07 0.08 0.08 0.08 0.06 0.07 0.09 0.10 0.09 0.08 0.07 0.06 0.04 0.04 0.04 0.05 0.06 0.08 0.11 0.17 0.20 0.17 0.10
0.00 0.00 0.00 0.00 0.00 0.00 0.00 0.00 0.00 0.00 0.00 0.00 0.00 0.00 0.00 0.00 0.00 0.01 0.02 0.06 0.12 0.13 0.12 0.11 0.09 0.07 0.08 0.09 0.09 0.09 0.09 0.07 0.05 0.05 0.05 0.05 0.06 0.07 0.10 0.16 0.26 0.32 0.24 0.12
0.00 0.00 0.00 0.00 0.00 0.00 0.00 0.00 0.00 0.00 0.00 0.00 0.00 0.00 0.00 0.00 0.01 0.02 0.06 0.13 0.23 0.24 0.19 0.14 0.11 0.08 0.08 0.08 0.09 0.08 0.07 0.06 0.05 0.05 0.05 0.05 0.06 0.08 0.13 0.22 0.30 0.35 0.29 0.13
0.00 0.00 0.00 0.00 0.00 0.00 0.00 0.00 0.00 0.00 0.00 0.00 0.00 0.00 0.00 0.00 0.02 0.06 0.13 0.20 0.26 0.26 0.21 0.16 0.12 0.08 0.07 0.08 0.08 0.08 0.07 0.05 0.04 0.04 0.06 0.06 0.06 0.09 0.16 0.25 0.31 0.32 0.27 0.12
0.00 0.00 0.00 0.00 0.00 0.00 0.00 0.00 0.00 0.00 0.00 0.00 0.00 0.00 0.00 0.01 0.06 0.15 0.27 0.34 0.35 0.26 0.19 0.17 0.12 0.07 0.06 0.06 0.06 0.06 0.05 0.04 0.04 0.04 0.06 0.05 0.06 0.11 0.20 0.29 0.31 0.30 0.22 0.10
0.00 0.00 0.00 0.00 0.00 0.00 0.00 0.00 0.00 0.00 0.00 0.00 0.00 0.00 0.00 0.02 0.07 0.20 0.33 0.45 0.50 0.40 0.26 0.17 0.12 0.06 0.04 0.03 0.04 0.04 0.04 0.03 0.03 0.03 0.03 0.04 0.07 0.14 0.24 0.31 0.30 0.26 0.17 0.07
0.00 0.00 0.00 0.00 0.00 0.00 0.00 0.00 0.00 0.00 0.00 0.00 0.00 0.00 0.00 0.02 0.08 0.22 0.35 0.46 0.54 0.50 0.35 0.22 0.12 0.06 0.03 0.02 0.01 0.02 0.03 0.03 0.02 0.03 0.04 0.07 0.13 0.19 0.26 0.27 0.24 0.18 0.11 0.05
0.00 0.00 0.00 0.00 0.00 0.00 0.00 0.00 0.00 0.00 0.00 0.00 0.00 0.00 0.01 0.02 0.07 0.20 0.41 0.56 0.53 0.45 0.34 0.23 0.13 0.06 0.02 0.01 0.00 0.01 0.01 0.02 0.03 0.04 0.07 0.10 0.14 0.18 0.19 0.18 0.13 0.08 0.05 0.03
0.00 0.00 0.00 0.00 0.00 0.00 0.00 0.00 0.00 0.00 0.00 0.00 0.00 0.00 0.01 0.03 0.08 0.17 0.30 0.49 0.53 0.45 0.29 0.18 0.11 0.05 0.02 0.00 0.00 0.00 0.00 0.01 0.02 0.03 0.06 0.08 0.11 0.11 0.12 0.09 0.05 0.04 0.02 0.01
0.00 0.00 0.00 0.00 0.00 0.00 0.00 0.00 0.00 0.00 0.00 0.00 0.00 0.00 0.02 0.04 0.11 0.25 0.35 0.35 0.36 0.37 0.23 0.12 0.07 0.03 0.02 0.01 0.01 0.01 0.00 0.01 0.02 0.03 0.04 0.05 0.05 0.06 0.06 0.03 0.02 0.01 0.01 0.01
0.00 0.00 0.00 0.00 0.00 0.00 0.00 0.00 0.00 0.00 0.00 0.00 0.00 0.00 0.02 0.04 0.07 0.16 0.26 0.28 0.27 0.28 0.17 0.10 0.05 0.03 0.02 0.01 0.01 0.01 0.01 0.01 0.02 0.02 0.02 0.03 0.03 0.03 0.03 0.01 0.01 0.00 0.01 0.01
0.00 0.00 0.00 0.00 0.00 0.00 0.00 0.00 0.00 0.00 0.00 0.00 0.00 0.00 0.01 0.02 0.06 0.12 0.16 0.16 0.18 0.19 0.13 0.10 0.09 0.08 0.06 0.05 0.05 0.04 0.03 0.02 0.02 0.02 0.02 0.02 0.02 0.02 0.01 0.01 0.00 0.00 0.00 0.00
0.00 0.00 0.00 0.00 0.00 0.00 0.00 0.00 0.00 0.00 0.00 0.00 0.00 0.00 0.01 0.01 0.03 0.06 0.10 0.11 0.12 0.14 0.10 0.07 0.07 0.07 0.06 0.06 0.06 0.05 0.04 0.03 0.02 0.02 0.02 0.02 0.02 0.02 0.01 0.01 0.00 0.00 0.00 0.00
0.00 0.00 0.00 0.00 0.00 0.00 0.00 0.00 0.00 0.00 0.00 0.00 0.00 0.00 0.01 0.01 0.02 0.04 0.06 0.09 0.09 0.09 0.07 0.05 0.03 0.03 0.02 0.02 0.02 0.03 0.03 0.03 0.03 0.03 0.03 0.03 0.03 0.02 0.02 0.01 0.00 0.00 0.00 0.00
MSLP
1013.24 1013.35 1013.55 1013.86 1014.27 1014.79 1015.37 1016.00 1016.62 1017.19 1017.68 1018.05 1018.27 1018.33 1018.25 1018.01 1017.65 1017.19 1016.65 1016.09 1015.51 1014.97 1014.48 1014.06 1013.72 1013.45 1013.22 1013.03 1012.83 1012.60 1012.31 1011.95 1011.50 1010.97 1010.39 1009.77 1009.16 1008.59 1008.09 1007.67 1007.36 1007.14 1007.01 1006.95
1013.72 1013.95 1014.25 1014.64 1015.12 1015.65 1016.22 1016.78 1017.30 1017.74 1018.06 1018.25 1018.28 1018.16 1017.89 1017.49 1016.99 1016.41 1015.79 1015.17 1014.56 1014.01 1013.51 1013.10 1012.76 1012.49 1012.27 1012.08 1011.88 1011.67 1011.40 1011.07 1010.67 1010.20 1009.69 1009.15 1008.61 1008.10 1007.65 1007.27 1006.97 1006.77 1006.65 1006.60
1014.31 1014.64 1015.04 1015.49 1016.00 1016.52 1017.04 1017.51 1017.89 1018.16 1018.30 1018.28 1018.10 1017.78 1017.33 1016.78 1016.16 1015.50 1014.82 1014.16 1013.54 1012.98 1012.48 1012.06 1011.70 1011.41 1011.16 1010.94 1010.73 1010.50 1010.24 1009.95 1009.61 1009.22 1008.81 1008.37 1007.94 1007.53 1007.15 1006.83 1006.58 1006.39 1006.27 1006.21
1014.99 1015.39 1015.84 1016.33 1016.83 1017.31 1017.74 1018.08 1018.31 1018.40 1018.33 1018.10 1017.73 1017.23 1016.64 1015.97 1015.27 1014.55 1013.85 1013.18 1012.57 1012.01 1011.51 1011.06 1010.68 1010.34 1010.03 1009.76 1009.50 1009.25 1008.99 1008.72 1008.44 1008.14 1007.83 1007.52 1007.21 1006.90 1006.62 1006.36 1006.14 1005.97 1005.84 1005.77
1015.71 1016.14 1016.60 1017.07 1017.52 1017.92 1018.24 1018.44 1018.50 1018.40 1018.14 1017.74 1017.20 1016.57 1015.86 1015.12 1014.38 1013.65 1012.95 1012.31 1011.71 1011.16 1010.65 1010.18 1009.75 1009.36 1008.99 1008.65 1008.33 1008.04 1007.77 1007.53 1007.30 1007.08 1006.87 1006.66 1006.45 1006.25 1006.05 1005.85 1005.66 1005.50 1005.36 1005.26
1016.42 1016.83 1017.25 1017.66 1018.03 1018.31 1018.49 1018.54 1018.43 1018.17 1017.75 1017.21 1016.55 1015.82 1015.06 1014.29 1013.53 1012.82 1012.15 1011.54 1010.96 1010.43 1009.92 1009.43 1008.96 1008.50 1008.07 1007.66 1007.29 1006.97 1006.68 1006.45 1006.25 1006.09 1005.96 1005.84 1005.72 1005.59 1005.45 1005.30 1005.13 1004.97 1004.82 1004.70
1017.08 1017.43 1017.76 1018.07 1018.31 1018.46 1018.49 1018.39 1018.13 1017.72 1017.18 1016.53 1015.80 1015.02 1014.24 1013.47 1012.74 1012.06 1011.44 1010.85 1010.31 1009.79 1009.27 1008.76 1008.26 1007.75 1007.27 1006.81 1006.39 1006.03 1005.74 1005.50 1005.33 1005.21 1005.13 1005.06 1005.00 1004.92 1004.83 1004.71 1004.56 1004.41 1004.27 1004.15
1017.63 1017.89 1018.12 1018.29 1018.39 1018.39 1018.27 1018.02 1017.63 1017.11 1016.48 1015.77 1015.00 1014.21 1013.43 1012.68 1011.99 1011.35 1010.76 1010.21 1009.68 1009.17 1008.65 1008.12 1007.58 1007.05 1006.52 1006.03 1005.59 1005.21 1004.90 1004.67 1004.51 1004.41 1004.35 1004.31 1004.28 1004.24 1004.17 1004.08 1003.97 1003.85 1003.74 1003.65
1018.06 1018.21 1018.31 1018.35 1018.30 1018.15 1017.88 1017.50 1017.01 1016.40 1015.71 1014.97 1014.19 1013.40 1012.65 1011.93 1011.27 1010.66 1010.09 1009.55 1009.02 1008.50 1007.97 1007.42 1006.87 1006.31 1005.77 1005.26 1004.81 1004.42 1004.11 1003.88 1003.72 1003.62 1003.57 1003.55 1003.53 1003.51 1003.47 1003.42 1003.36 1003.30 1003.25 1003.25
1018.36 1018.39 1018.37 1018.26 1018.07 1017.78 1017.40 1016.91 1016.33 1015.67 1014.94 1014.18 1013.41 1012.65 1011.91 1011.22 1010.57 1009.96 1009.39 1008.84 1008.30 1007.75 1007.19 1006.62 1006.05 1005.48 1004.93 1004.43 1003.98 1003.60 1003.29 1003.06 1002.90 1002.80 1002.75 1002.73 1002.72 1002.72 1002.73 1002.73 1002.75 1002.78 1002.84 1002.94
1018.52 1018.46 1018.31 1018.08 1017.77 1017.36 1016.87 1016.30 1015.66 1014.97 1014.23 1013.47 1012.71 1011.96 1011.24 1010.55 1009.89 1009.26 1008.66 1008.07 1007.48 1006.89 1006.29 1005.69 1005.10 1004.53 1003.98 1003.49 1003.06 1002.69 1002.39 1002.17 1002.01 1001.91 1001.85 1001.84 1001.85 1001.88 1001.94 1002.02 1002.13 1002.28 1002.47 1002.71
1018.56 1018.42 1018.17 1017.84 1017.43 1016.93 1016.37 1015.74 1015.06 1014.34 1013.60 1012.85 1012.09 1011.35 1010.63 1009.92 1009.24 1008.57 1007.90 1007.25 1006.59 1005.94 1005.29 1004.66 1004.04 1003.46 1002.93 1002.45 1002.04 1001.69 1001.41 1001.20 1001.05 1000.95 1000.89 1000.89 1000.92 1001.00 1001.12 1001.29 1001.51 1001.79 1002.12 1002.50
1018.52 1018.30 1017.98 1017.57 1017.08 1016.52 1015.90 1015.23 1014.53 1013.81 1013.07 1012.32 1011.57 1010.83 1010.09 1009.35 1008.61 1007.88 1007.14 1006.40 1005.67 1004.94 1004.24 1003.56 1002.93 1002.34 1001.82 1001.36 1000.97 1000.65 1000.39 1000.19 1000.05 999.96 999.92 999.93 999.99 1000.11 1000.31 1000.56 1000.89 1001.29 1001.75 1002.25
1018.39 1018.12 1017.75 1017.28 1016.74 1016.13 1015.48 1014.79 1014.08 1013.35 1012.62 1011.87 1011.12 1010.37 1009.60 1008.81 1008.01 1007.20 1006.38 1005.55 1004.74 1003.94 1003.18 1002.47 1001.82 1001.23 1000.72 1000.28 999.92 999.63 999.40 999.22 999.09 999.01 998.98 999.01 999.11 999.28 999.53 999.86 1000.27 1000.76 1001.31 1001.90
1018.21 1017.90 1017.49 1016.99 1016.41 1015.78 1015.11 1014.41 1013.70 1012.97 1012.24 1011.49 1010.73 1009.95 1009.14 1008.30 1007.44 1006.55 1005.64 1004.74 1003.85 1002.99 1002.18 1001.44 1000.77 1000.19 999.70 999.29 998.97 998.70 998.50 998.34 998.23 998.17 998.16 998.21 998.32 998.52 998.81 999.19 999.66 1000.20 1000.80 1001.42
1017.99 1017.65 1017.21 1016.69 1016.09 1015.45 1014.78 1014.08 1013.37 1012.64 1011.91 1011.16 1010.38 1009.57 1008.71 1007.82 1006.89 1005.92 1004.94 1003.97 1003.01 1002.10 1001.26 1000.51 999.85 999.28 998.82 998.45 998.16 997.93 997.76 997.63 997.54 997.49 997.49 997.54 997.67 997.88 998.18 998.57 999.05 999.60 1000.20 1000.83
1017.75 1017.39 1016.93 1016.40 1015.80 1015.16 1014.49 1013.80 1013.09 1012.37 1011.63 1010.87 1010.06 1009.22 1008.32 1007.37 1006.37 1005.34 1004.30 1003.26 1002.27 1001.33 1000.47 999.71 999.07 998.53 998.10 997.77 997.52 997.33 997.19 997.09 997.02 996.98 996.98 997.03 997.15 997.35 997.64 998.01 998.47 998.99 999.56 1000.15
1017.49 1017.13 1016.67 1016.14 1015.56 1014.92 1014.26 1013.58 1012.88 1012.16 1011.42 1010.63 1009.80 1008.91 1007.97 1006.96 1005.91 1004.83 1003.73 1002.65 1001.63 1000.67 999.81 999.07 998.45 997.95 997.56 997.27 997.06 996.91 996.80 996.72 996.66 996.62 996.61 996.65 996.75 996.92 997.17 997.50 997.91 998.38 998.90 999.43
1017.24 1016.88 1016.44 1015.93 1015.36 1014.75 1014.11 1013.44 1012.75 1012.03 1011.28 1010.47 1009.61 1008.69 1007.69 1006.64 1005.54 1004.41 1003.27 1002.17 1001.12 1000.16 999.31 998.59 998.00 997.53 997.18 996.93 996.76 996.63 996.54 996.47 996.41 996.37 996.35 996.36 996.42 996.55 996.75 997.03 997.38 997.80 998.26 998.75
1017.01 1016.67 1016.25 1015.77 1015.23 1014.65 1014.03 1013.39 1012.71 1011.99 1011.23 1010.41 1009.52 1008.56 1007.52 1006.43 1005.29 1004.12 1002.96 1001.83 1000.78 999.82 998.98 998.27 997.70 997.27 996.94 996.72 996.56 996.45 996.37 996.30 996.23 996.17 996.12 996.10 996.13 996.21 996.36 996.59 996.89 997.26 997.68 998.13
1016.80 1016.49 1016.11 1015.66 1015.15 1014.61 1014.02 1013.40 1012.74 1012.03 1011.26 1010.43 1009.52 1008.53 1007.47 1006.35 1005.18 1003.99 1002.81 1001.67 1000.61 999.65 998.82 998.12 997.56 997.13 996.82 996.60 996.44 996.33 996.24 996.15 996.07 995.98 995.90 995.85 995.84 995.88 996.00 996.18 996.45 996.78 997.18 997.61
1016.61 1016.33 1015.98 1015.57 1015.11 1014.60 1014.04 1013.45 1012.81 1012.11 1011.35 1010.52 1009.61 1008.61 1007.54 1006.40 1005.22 1004.02 1002.83 1001.69 1000.63 999.67 998.83 998.14 997.57 997.13 996.80 996.56 996.39 996.25 996.13 996.01 995.90 995.78 995.67 995.59 995.55 995.57 995.65 995.82 996.06 996.38 996.77 997.22
1016.41 1016.17 1015.86 1015.48 1015.05 1014.57 1014.05 1013.49 1012.87 1012.20 1011.46 1010.64 1009.74 1008.76 1007.70 1006.57 1005.40 1004.21 1003.03 1001.89 1000.83 999.87 999.03 998.31 997.73 997.26 996.90 996.62 996.39 996.21 996.05 995.89 995.74 995.59 995.45 995.35 995.29 995.29 995.37 995.52 995.76 996.09 996.49 996.94
1016.20 1015.99 1015.70 1015.36 1014.95 1014.50 1014.01 1013.47 1012.89 1012.25 1011.54 1010.75 1009.89 1008.94 1007.91 1006.82 1005.68 1004.52 1003.37 1002.25 1001.21 1000.25 999.39 998.65 998.03 997.52 997.11 996.77 996.49 996.25 996.03 995.83 995.64 995.46 995.30 995.18 995.11 995.11 995.19 995.35 995.60 995.93 996.34 996.81
1015.97 1015.78 1015.51 1015.18 1014.79 1014.36 1013.89 1013.38 1012.82 1012.22 1011.56 1010.82 1010.01 1009.12 1008.16 1007.13 1006.05 1004.94 1003.84 1002.76 1001.73 1000.78 999.92 999.16 998.50 997.94 997.47 997.07 996.73 996.42 996.15 995.89 995.66 995.45 995.28 995.15 995.09 995.09 995.17 995.35 995.60 995.94 996.35 996.83
1015.72 1015.54 1015.27 1014.94 1014.56 1014.14 1013.69 1013.20 1012.68 1012.12 1011.51 1010.84 1010.10 1009.29 1008.41 1007.46 1006.47 1005.44 1004.40 1003.38 1002.40 1001.47 1000.61 999.84 999.15 998.54 998.02 997.56 997.15 996.79 996.46 996.17 995.90 995.67 995.49 995.36 995.29 995.31 995.40 995.58 995.83 996.17 996.57 997.03
1015.48 1015.29 1015.01 1014.68 1014.30 1013.88 1013.44 1012.98 1012.49 1011.98 1011.43 1010.83 1010.18 1009.46 1008.68 1007.84 1006.95 1006.02 1005.07 1004.12 1003.19 1002.30 1001.47 1000.69 999.99 999.36 998.79 998.28 997.83 997.42 997.05 996.72 996.43 996.18 995.99 995.86 995.80 995.82 995.91 996.09 996.34 996.65 997.03 997.45
Thickness
5737 5739 5732 5718 5708 5705 5700 5692 5687 5678 5659 5637 5628 5622 5617 5614 5611 5610 5609 5607 5605 5603 5601 5598 5596 5593 5591 5590 5590 5590 5591 5591 5593 5596 5601 5607 5612 5619 5627 5633 5639 5644 5647 5649
5727 5732 5722 5698 5685 5683 5672 5667 5662 5650 5634 5628 5620 5612 5606 5603 5601 5601 5601 5601 5599 5596 5593 5590 5587 5584 5580 5578 5576 5576 5576 5577 5577 5578 5582 5588 5593 5600 5608 5616 5624 5630 5636 5641
5719 5722 5710 5682 5659 5659 5651 5645 5644 5633 5623 5617 5609 5603 5602 5604 5604 5600 5596 5592 5588 5583 5579 5576 5574 5571 5569 5567 5564 5562 5561 5562 5562 5563 5565 5569 5574 5580 5587 5596 5606 5614 5622 5629
5712 5707 5687 5653 5658 5650 5641 5636 5630 5620 5613 5609 5606 5606 5603 5599 5594 5586 5578 5571 5565 5561 5557 5555 5553 5551 5550 5549 5546 5545 5545 5545 5545 5545 5547 5551 5554 5558 5565 5573 5584 5595 5605 5614
5700 5694 5668 5652 5650 5641 5632 5631 5624 5613 5612 5608 5604 5597 5595 5587 5571 5558 5552 5547 5543 5540 5538 5536 5534 5533 5533 5533 5530 5529 5528 5527 5528 5527 5529 5531 5533 5538 5544 5551 5562 5573 5585 5595
5687 5674 5667 5644 5641 5640 5633 5624 5615 5609 5601 5594 5585 5577 5576 5562 5548 5540 5534 5531 5530 5530 5529 5529 5528 5527 5526 5526 5525 5523 5522 5521 5520 5518 5517 5516 5517 5520 5524 5531 5540 5552 5565 5577
5674 5669 5650 5639 5640 5637 5622 5618 5611 5600 5589 5577 5565 5553 5548 5542 5535 5529 5527 5527 5527 5527 5526 5524 5522 5520 5520 5519 5519 5518 5517 5516 5515 5514 5512 5510 5509 5510 5511 5515 5524 5534 5546 5559
5665 5655 5639 5634 5628 5616 5608 5605 5595 5585 5575 5564 5552 5542 5533 5528 5526 5526 5527 5527 5526 5524 5522 5518 5514 5511 5512 5511 5510 5509 5508 5507 5507 5508 5508 5508 5508 5507 5506 5507 5512 5521 5531 5543
5650 5646 5637 5629 5617 5612 5603 5593 5583 5572 5562 5549 5538 5531 5528 5526 5526 5526 5525 5524 5521 5518 5515 5511 5506 5502 5502 5502 5499 5497 5496 5496 5497 5499 5501 5502 5503 5503 5503 5504 5507 5516 5525 5533
5641 5641 5633 5623 5616 5606 5593 5581 5571 5559 5548 5536 5528 5526 5525 5525 5525 5524 5523 5520 5515 5511 5507 5504 5500 5497 5494 5493 5489 5486 5484 5484 5485 5489 5493 5496 5499 5502 5506 5508 5511 5514 5520 5526
5633 5630 5621 5617 5604 5593 5583 5572 5561 5549 5537 5526 5522 5522 5522 5523 5523 5521 5519 5515 5509 5503 5499 5496 5492 5489 5486 5483 5479 5476 5473 5472 5472 5477 5483 5489 5495 5500 5506 5509 5512 5512 5517 5521
5623 5618 5607 5602 5594 5584 5575 5564 5554 5542 5532 5524 5519 5520 5521 5521 5520 5517 5514 5510 5503 5496 5490 5486 5482 5480 5478 5474 5469 5465 5462 5462 5462 5466 5472 5481 5489 5497 5501 5502 5504 5505 5507 5513
5617 5612 5602 5594 5587 5579 5568 5559 5547 5535 5525 5521 5521 5520 5519 5518 5516 5512 5508 5503 5495 5487 5481 5477 5474 5473 5472 5468 5462 5457 5454 5453 5454 5458 5465 5473 5482 5493 5501 5499 5496 5498 5501 5506
5612 5602 5594 5588 5582 5573 5563 5553 5542 5531 5523 5518 5519 5519 5517 5514 5512 5507 5502 5496 5486 5478 5474 5470 5468 5468 5466 5462 5456 5452 5450 5449 5450 5454 5461 5470 5480 5491 5498 5501 5500 5502 5500 5502
5608 5597 5590 5585 5577 5568 5558 5547 5537 5528 5521 5519 5519 5517 5514 5511 5507 5503 5497 5488 5479 5473 5469 5466 5465 5464 5460 5455 5451 5447 5446 5447 5450 5455 5462 5470 5480 5488 5494 5498 5499 5500 5503 5505
5603 5595 5588 5579 5570 5561 5552 5541 5531 5524 5519 5518 5518 5516 5511 5507 5502 5496 5489 5481 5473 5470 5468 5465 5464 5462 5458 5453 5448 5446 5446 5448 5451 5457 5465 5474 5482 5489 5492 5492 5492 5494 5499 5505
5597 5590 5582 5573 5564 5556 5545 5535 5525 5519 5516 5516 5516 5514 5509 5503 5496 5491 5485 5479 5473 5470 5468 5467 5466 5462 5458 5454 5450 5450 5451 5454 5456 5463 5471 5480 5486 5489 5490 5489 5490 5494 5500 5508
5594 5585 5577 5567 5559 5551 5543 5533 5523 5516 5513 5513 5513 5510 5502 5495 5491 5489 5486 5481 5478 5476 5474 5471 5468 5464 5461 5459 5456 5456 5458 5462 5468 5474 5480 5485 5488 5489 5490 5491 5494 5499 5508 5516
5591 5582 5574 5564 5555 5546 5538 5529 5521 5514 5512 5511 5508 5502 5496 5493 5492 5491 5488 5485 5483 5480 5478 5475 5471 5470 5468 5467 5464 5466 5469 5472 5478 5483 5488 5488 5492 5494 5496 5498 5505 5515 5524 5532
5587 5579 5570 5562 5553 5544 5535 5526 5518 5512 5510 5508 5503 5499 5499 5498 5498 5496 5494 5491 5487 5483 5481 5480 5480 5481 5479 5478 5474 5479 5482 5485 5490 5494 5497 5500 5502 5505 5509 5515 5524 5533 5541 5548
5583 5574 5566 5559 5551 5542 5534 5523 5516 5511 5508 5505 5501 5500 5501 5503 5504 5502 5500 5500 5498 5493 5491 5491 5493 5492 5492 5488 5486 5494 5496 5500 5504 5507 5511 5515 5518 5523 5529 5537 5544 5551 5556 5561
5578 5570 5562 5555 5548 5540 5532 5523 5515 5508 5506 5505 5505 5506 5508 5510 5511 5509 5508 5505 5505 5502 5503 5506 5506 5502 5501 5499 5506 5510 5512 5515 5518 5523 5528 5532 5537 5542 5548 5554 5559 5564 5568 5571
5573 5566 5558 5552 5545 5537 5530 5522 5513 5507 5506 5506 5510 5512 5512 5512 5512 5512 5516 5517 5516 5515 5518 5518 5515 5512 5511 5518 5523 5526 5528 5530 5535 5539 5544 5548 5553 5557 5561 5566 5570 5573 5576 5579
5570 5563 5555 5549 5542 5537 5530 5522 5513 5509 5509 5511 5514 5515 5515 5517 5520 5520 5520 5524 5527 5529 5533 5529 5527 5528 5528 5536 5538 5540 5543 5545 5549 5554 5559 5563 5566 5569 5572 5575 5577 5579 5581 5583
5567 5559 5553 5547 5542 5537 5529 5522 5516 5514 5514 5516 5518 5520 5519 5518 5518 5522 5527 5532 5536 5539 5544 5543 5542 5543 5547 5550 5551 5554 5555 5558 5562 5566 5570 5573 5576 5579 5580 5583 5585 5586 5587 5588
5563 5558 5551 5544 5539 5532 5528 5521 5516 5514 5514 5517 5519 5521 5520 5520 5522 5525 5530 5536 5541 5544 5548 5550 5553 5555 5558 5560 5562 5565 5567 5570 5573 5576 5578 5581 5584 5586 5588 5589 5590 5591 5592 5593
5562 5557 5550 5545 5539 5531 5525 5519 5515 5512 5513 5513 5515 5519 5519 5519 5521 5525 5530 5536 5541 5545 5549 5552 5555 5558 5563 5566 5569 5573 5576 5578 5581 5583 5584 5586 5587 5588 5589 5591 5593 5593 5594 5594